Theta_e
320 315 315 309 299 292 288 290 291 294 294 296 299 299 296 295 296 294 309 311 315 325 339 341 347 348 349 350 349 348 347 348 348 349 348 348 347 346 346 345 346 344 344 343 342 342 343 346 348
315 317 311 302 293 286 287 290 292 294 298 298 299 296 295 293 301 302 303 307 311 315 331 335 342 345 342 343 346 348 349 348 347 348 348 348 348 348 347 344 345 345 344 344 343 341 343 346 347
316 314 304 296 288 287 287 291 292 296 297 297 295 297 295 295 299 300 302 305 307 308 311 320 328 335 339 340 340 343 346 346 346 346 347 347 347 347 347 347 347 345 344 344 344 342 343 345 346
307 306 300 291 287 289 292 292 295 296 297 299 297 293 297 300 299 300 303 304 304 306 309 317 326 326 328 332 339 340 341 341 344 345 346 346 346 346 346 346 346 347 344 343 344 344 346 344 345
304 298 292 289 287 290 291 294 295 294 295 295 295 292 293 298 299 299 300 301 301 300 305 307 319 321 325 327 328 330 335 338 340 341 342 343 345 344 344 344 346 346 344 343 344 347 347 347 345
299 296 290 286 288 291 292 294 295 293 294 294 293 291 292 296 296 297 298 297 298 298 301 302 309 316 317 318 320 325 329 330 331 334 336 340 341 341 342 343 344 344 343 344 344 347 347 346 346
296 293 290 288 290 291 294 295 293 292 292 295 296 290 292 293 295 296 295 295 295 296 298 299 300 305 310 313 315 316 317 323 327 328 330 332 334 338 340 339 341 342 343 343 344 344 345 346 346
298 294 290 290 290 290 294 295 294 295 293 296 295 288 287 291 294 294 294 293 293 295 295 296 298 300 301 301 312 312 312 315 319 324 326 327 329 331 333 333 336 340 341 341 341 341 342 345 344
301 293 290 289 291 291 294 293 295 294 291 292 292 291 293 293 292 291 291 291 292 295 294 294 296 297 299 299 303 306 308 311 315 316 316 319 322 325 327 329 333 337 338 339 339 339 341 339 338
296 291 291 293 292 292 294 293 294 291 289 289 290 291 292 291 290 289 288 288 289 291 292 293 293 294 297 298 299 299 302 303 308 308 309 314 316 320 324 323 326 330 331 334 337 338 336 332 333
294 291 294 296 295 296 294 292 293 291 289 289 288 288 289 288 288 288 287 287 287 288 292 293 292 293 293 295 296 296 298 299 306 304 305 307 308 315 318 321 325 327 324 326 329 331 332 331 331
292 296 296 298 297 295 293 294 292 290 290 292 290 290 288 287 287 287 287 286 287 288 290 292 291 292 292 292 292 292 294 296 299 302 304 303 305 307 306 310 316 323 327 325 326 327 328 328 329
293 295 296 297 296 295 295 292 291 288 290 291 290 289 287 287 287 287 287 287 286 286 288 289 289 290 291 290 289 290 290 292 295 298 300 302 303 300 303 303 304 308 318 325 326 326 326 326 329
294 295 295 296 295 295 293 291 291 290 290 289 289 287 287 288 287 286 286 285 286 287 287 287 288 289 290 289 289 290 291 291 292 292 294 299 301 299 300 300 299 304 312 316 323 326 326 325 328
294 291 293 293 294 293 293 288 290 291 289 288 287 287 288 288 287 286 285 285 284 285 286 287 289 289 289 289 290 290 291 291 291 291 293 296 297 296 298 298 298 306 306 306 307 318 326 324 325
290 289 286 292 293 293 291 286 290 291 289 287 285 285 287 286 285 285 285 284 284 284 285 286 289 288 289 289 289 289 290 290 291 292 292 292 292 293 297 297 298 302 302 302 302 304 317 321 322
288 284 285 288 293 291 289 285 289 289 288 285 283 284 284 283 283 283 283 283 283 284 284 285 287 287 288 288 288 288 289 290 290 290 290 290 291 293 296 297 297 299 299 299 301 301 301 318 321
284 282 284 284 288 289 288 288 288 289 286 285 282 282 282 282 283 284 284 283 283 283 284 285 287 286 287 287 287 287 287 287 287 287 287 289 289 292 293 294 297 297 298 297 298 299 301 301 315
285 284 283 285 290 288 288 289 287 289 285 282 280 280 280 281 283 283 283 282 283 283 283 284 285 285 285 285 283 283 282 283 284 284 285 285 288 289 290 292 293 296 296 296 297 299 299 300 301
286 285 284 287 289 287 286 286 288 288 286 285 282 280 280 281 281 282 282 281 282 282 283 284 284 285 284 284 283 283 282 281 281 282 282 282 283 283 284 285 290 295 295 295 296 296 298 299 301
285 284 284 284 285 285 284 282 287 285 285 282 282 282 281 281 281 281 282 279 280 281 282 284 284 284 283 283 283 282 281 281 280 280 279 280 281 281 281 283 286 291 295 294 293 294 296 296 298
283 286 285 284 281 277 281 276 281 280 283 281 282 279 279 280 281 281 281 279 279 282 282 282 283 284 284 282 280 278 277 276 278 278 279 279 280 280 281 283 286 286 292 293 292 294 294 296 295
285 285 284 282 280 277 279 276 280 280 280 280 281 279 278 279 280 280 281 282 282 283 281 281 282 282 282 281 279 278 277 277 278 278 277 277 278 279 280 282 283 285 287 293 293 292 293 295 296
287 285 283 280 278 273 278 277 276 276 280 282 282 279 279 279 279 281 282 282 282 281 281 281 281 281 281 279 278 277 276 276 276 275 275 275 276 278 279 279 280 282 285 287 293 293 293 293 293
285 280 276 273 271 275 276 275 283 282 281 283 282 279 279 279 279 280 280 280 280 280 280 281 280 279 279 278 278 277 276 276 275 275 275 274 275 275 275 276 278 280 282 284 286 293 292 293 292
283 281 276 270 271 278 277 275 279 279 280 282 282 280 278 278 279 279 280 280 279 280 280 279 279 279 279 278 277 277 276 276 276 275 274 274 274 274 275 277 277 278 279 284 286 292 293 292 293
281 278 281 275 262 266 274 277 281 277 277 277 277 278 277 278 278 279 280 280 279 279 279 279 278 278 278 277 276 275 275 275 274 274 274 274 274 274 275 274 274 276 279 280 283 285 292 292 293
281 282 276 275 270 267 273 274 279 275 275 276 276 277 277 278 279 279 279 280 279 279 279 278 278 276 276 276 275 274 274 274 274 274 274 273 274 273 273 273 274 274 275 277 282 283 291 291 292
276 276 277 278 278 272 271 279 279 278 279 276 277 278 277 278 279 279 279 279 279 278 277 276 275 275 275 275 274 273 273 273 274 273 273 273 273 273 272 272 273 274 275 277 278 281 283 290 289
278 280 280 276 273 276 274 278 280 281 281 280 278 278 278 278 278 278 278 278 277 276 276 275 274 274 274 273 272 272 272 272 272 272 273 273 272 273 272 272 272 272 273 274 277 280 282 289 288
Wind_Speed
5 3 3 5 5 6 2 2 2 3 2 2 3 14 11 6 5 7 6 16 17 10 8 7 10 8 9 10 8 7 7 8 8 9 9 8 8 7 8 9 8 9 10 11 10 12 12 10 11
3 3 5 3 6 4 4 2 4 4 5 6 10 5 12 4 7 5 8 17 10 13 13 13 13 12 15 16 15 10 8 9 11 11 12 12 11 11 10 10 11 11 12 13 12 12 13 11 10
3 3 4 5 4 4 5 3 4 2 1 4 7 8 5 7 4 4 8 9 12 15 13 15 21 19 17 16 19 17 15 13 11 13 14 14 14 14 13 10 11 12 14 13 14 13 12 12 11
2 5 5 5 3 0 7 5 4 5 1 10 10 10 6 7 4 5 8 9 14 15 14 18 25 25 23 20 18 18 18 17 16 16 15 15 16 15 14 12 13 13 15 15 15 15 13 13 12
4 3 4 4 2 1 3 1 3 3 4 6 3 6 6 4 6 6 8 9 11 13 12 15 26 26 26 26 26 22 21 21 20 19 17 18 16 17 16 15 15 15 16 17 17 15 15 12 13
4 3 5 2 3 2 2 1 5 4 4 4 7 7 4 4 6 6 6 8 10 10 11 13 18 22 24 26 28 26 25 24 23 22 22 21 17 18 19 17 17 16 17 18 18 17 15 13 14
6 4 4 3 6 2 2 1 5 4 3 5 7 6 5 5 5 5 7 7 8 9 11 10 11 15 18 22 25 27 28 26 25 22 22 22 20 19 17 18 18 18 18 19 18 17 16 15 15
5 5 2 1 5 3 2 3 4 6 2 2 2 7 5 2 3 5 7 8 8 9 10 10 11 11 11 10 20 22 24 25 27 25 21 20 18 16 17 14 15 19 19 20 20 19 18 17 16
3 5 1 1 4 3 0 4 4 3 8 6 4 5 8 4 2 9 7 8 7 8 8 8 9 11 10 12 13 17 20 21 22 20 24 18 11 13 13 12 14 16 19 20 21 21 19 20 15
5 4 3 1 3 3 1 4 9 6 3 5 6 6 6 5 7 9 8 7 7 8 7 7 7 9 8 10 9 9 10 9 9 11 14 12 15 12 14 13 17 19 20 20 21 22 21 15 7
2 3 3 1 2 3 3 2 2 14 3 7 12 9 6 8 7 8 5 4 4 5 5 7 7 7 7 5 5 3 4 5 6 10 11 11 11 11 10 10 8 8 10 8 12 11 9 10 8
3 1 3 6 2 3 4 3 5 1 2 12 13 13 7 9 7 7 6 5 5 6 6 8 8 7 7 4 4 5 5 6 6 8 11 9 7 9 10 9 13 12 8 9 9 8 10 10 10
1 3 2 4 5 5 5 2 7 4 7 10 12 8 9 8 7 5 6 5 4 4 6 7 8 6 6 6 4 4 4 4 5 6 9 9 9 8 9 9 10 12 13 12 10 10 10 10 11
2 3 6 3 4 5 6 3 1 7 7 10 10 10 9 10 8 6 6 5 6 5 5 6 7 7 6 6 7 6 5 7 7 4 6 10 9 9 10 8 10 10 9 13 13 11 11 12 12
2 5 5 4 5 4 8 2 10 12 11 13 10 9 8 8 7 7 6 6 5 4 5 6 7 6 8 7 8 8 8 9 8 7 6 7 10 14 13 8 9 9 9 14 13 17 13 11 11
2 3 2 3 5 2 5 10 5 15 16 12 9 8 8 7 8 7 6 6 6 5 5 6 6 7 11 11 10 10 10 10 11 11 10 12 16 16 13 9 10 7 9 9 10 12 16 12 12
5 4 5 7 8 3 7 6 5 9 12 11 9 8 8 7 5 6 5 5 5 5 5 6 6 8 12 12 10 10 12 9 8 10 13 18 19 19 14 11 11 9 9 9 10 12 12 13 12
5 5 6 7 3 4 6 14 6 13 10 14 9 9 8 8 8 9 7 5 5 5 5 6 6 7 11 8 8 8 9 9 9 10 12 17 15 19 14 13 12 11 8 8 8 12 13 11 16
3 5 8 5 5 4 11 18 12 16 8 10 10 10 9 9 7 7 5 5 5 5 5 6 7 8 7 6 9 9 10 10 10 10 15 18 15 17 17 13 15 12 11 9 10 10 13 12 10
5 6 8 10 4 5 10 12 10 16 21 21 17 11 10 6 8 7 4 5 4 3 3 6 7 5 4 4 6 6 9 7 9 9 13 15 17 17 17 19 16 15 12 11 8 9 9 12 12
4 6 6 8 4 6 9 8 19 3 8 7 9 10 8 10 9 7 4 3 2 4 4 5 6 5 5 4 6 7 8 8 8 11 11 11 16 18 20 20 17 17 13 11 8 6 11 12 13
6 3 5 4 4 4 4 11 4 6 16 12 14 10 10 9 8 6 4 1 2 4 4 5 6 6 5 4 5 7 9 13 11 12 12 14 16 18 18 19 16 17 15 12 10 7 9 10 15
8 1 4 3 4 3 7 6 7 4 10 15 17 14 10 10 9 8 6 4 4 5 6 5 7 6 5 4 3 5 10 11 12 12 16 16 15 15 18 17 18 16 13 15 13 7 8 6 13
2 4 4 3 3 2 8 9 6 8 12 10 15 13 12 9 9 7 5 4 6 6 6 6 8 6 6 4 5 6 11 13 13 15 14 13 13 12 16 18 17 16 15 16 13 12 10 9 11
3 5 6 6 2 9 3 4 17 8 7 12 23 17 13 10 9 7 6 6 6 7 7 7 6 7 6 6 6 7 11 13 15 15 13 18 15 12 16 18 17 14 16 17 16 16 10 8 10
6 7 6 7 5 14 4 11 8 5 8 7 12 14 10 9 8 8 7 6 7 8 7 8 5 6 7 8 9 10 10 9 10 13 13 13 14 15 18 17 17 18 20 17 15 15 11 9 9
4 6 1 1 2 3 7 8 7 4 2 6 12 12 12 9 8 8 7 6 8 7 7 6 7 8 9 11 10 11 11 13 13 16 16 13 17 15 17 20 21 20 19 17 17 13 15 10 10
4 4 3 1 3 9 7 10 14 8 11 9 12 15 11 9 8 7 6 7 6 4 6 7 7 8 10 10 10 12 12 14 15 14 19 18 18 18 19 19 19 20 19 18 17 13 17 10 9
2 4 3 2 5 5 5 17 7 17 19 20 18 16 13 12 8 7 7 6 3 5 7 7 6 8 11 11 12 14 15 15 15 15 17 17 19 18 19 19 19 18 17 17 17 18 17 14 10
2 10 12 7 7 6 4 20 5 11 13 19 18 14 10 8 8 8 4 4 5 7 7 6 6 7 11 12 14 15 16 16 17 16 18 18 19 18 19 19 18 19 18 17 18 19 14 17 11
Wind_Direction
325 60 93 44 57 65 352 22 46 130 79 276 60 92 110 46 28 139 275 359 338 14 22 21 30 12 345 338 326 305 273 273 266 259 252 246 249 253 263 291 281 278 281 277 274 280 281 278 280
338 107 45 81 83 74 281 301 138 165 176 121 83 63 40 74 26 68 22 341 4 28 22 16 14 19 7 0 348 333 303 282 278 270 270 267 262 252 250 277 279 271 272 274 272 268 272 273 272
320 61 84 96 110 153 175 223 173 183 26 102 108 58 53 336 352 68 323 321 21 30 29 29 29 19 7 1 354 347 346 326 294 283 280 274 263 263 281 260 254 260 267 265 267 267 263 268 271
51 15 31 82 122 63 167 202 157 129 359 74 113 69 74 330 62 348 310 9 31 23 22 20 28 29 27 14 357 355 354 345 330 310 290 283 282 279 272 269 263 260 265 267 263 264 260 257 261
36 61 60 90 78 70 282 179 81 86 77 53 84 124 100 30 3 16 9 21 30 26 17 19 22 24 28 27 21 14 360 347 342 332 318 298 288 283 275 269 264 260 262 268 266 262 265 256 252
38 95 58 151 121 231 277 111 97 71 71 117 72 92 88 23 31 357 25 25 29 27 19 25 19 20 20 20 17 16 11 6 0 354 345 326 308 293 285 276 269 266 263 262 263 269 261 250 254
108 81 169 144 160 182 182 249 85 88 62 30 152 88 106 42 334 20 31 26 26 25 24 15 18 16 15 18 14 10 6 4 1 357 350 344 335 313 293 280 272 265 265 265 261 260 259 256 250
101 88 66 143 179 187 325 70 85 70 83 43 82 155 155 154 348 46 39 27 23 24 25 16 15 11 8 14 11 9 4 0 358 352 352 343 335 326 307 283 274 271 266 263 259 256 254 252 251
101 60 13 282 147 181 285 104 37 352 84 52 15 94 126 144 90 56 35 27 19 17 15 11 12 12 4 9 4 2 0 356 355 357 350 346 342 326 319 297 267 262 268 265 263 256 246 246 243
83 103 211 317 136 159 65 124 149 89 60 69 84 76 95 95 72 69 48 24 17 7 355 10 8 5 3 5 359 354 350 347 347 352 350 345 337 329 322 313 302 289 276 265 262 261 250 242 241
152 166 165 11 125 171 134 83 98 128 214 194 163 145 136 104 88 88 63 39 5 340 353 345 352 355 352 350 346 338 345 336 338 345 349 343 336 334 335 326 312 293 282 278 275 263 250 243 225
358 286 128 187 236 142 150 143 77 251 166 137 148 151 139 112 108 102 83 54 20 9 356 347 343 347 340 337 342 331 341 345 336 334 332 336 333 339 330 326 326 314 292 279 269 264 249 232 228
164 326 69 158 162 122 123 195 149 115 133 124 136 133 132 133 134 126 115 84 47 20 358 349 337 335 325 330 321 331 316 311 317 326 326 325 326 326 318 318 325 314 315 288 271 259 251 245 228
325 321 295 276 175 161 126 198 99 210 163 140 143 152 155 146 152 139 100 76 40 358 352 333 336 332 322 345 349 342 331 329 320 308 314 324 319 315 307 305 310 301 311 317 299 261 245 245 236
341 334 326 242 188 221 120 301 229 158 172 168 170 164 155 150 136 123 122 95 49 0 329 324 349 346 353 348 354 349 342 334 319 308 310 309 315 312 303 297 307 302 315 315 311 305 244 234 230
35 53 353 272 166 230 130 258 225 173 167 180 172 170 164 172 149 134 126 103 51 24 351 324 343 350 355 360 360 352 342 336 329 324 324 320 320 308 294 290 296 290 305 304 306 302 290 236 225
2 245 224 303 205 142 186 264 221 176 182 181 187 178 171 162 145 140 120 96 56 28 354 332 344 353 1 358 356 348 341 336 334 329 324 320 317 307 295 286 286 282 289 296 300 306 292 275 223
247 277 265 233 242 211 250 263 194 195 191 193 188 186 176 169 174 168 143 108 63 25 8 339 340 351 4 0 355 344 338 332 329 326 316 318 311 309 298 292 281 286 273 282 289 293 306 279 278
217 237 235 245 238 219 233 245 211 199 204 199 198 191 182 182 183 170 143 100 51 26 8 333 350 0 359 356 351 343 334 329 325 322 320 319 324 322 318 307 293 279 261 258 281 292 295 294 290
232 264 264 286 248 182 271 249 239 185 212 202 189 190 184 186 179 181 138 77 51 351 329 348 342 332 335 355 341 331 328 319 313 315 315 313 309 313 312 307 300 285 273 259 258 281 283 277 264
227 212 251 238 340 289 288 246 243 203 222 177 188 189 183 181 181 177 147 96 21 341 318 331 316 312 318 340 332 333 317 315 321 320 311 308 308 305 305 297 289 293 274 261 256 264 281 284 281
278 216 259 286 4 253 344 293 262 193 224 200 187 192 186 185 177 166 158 192 267 285 286 307 302 290 311 326 328 322 329 319 312 309 306 309 306 301 293 296 293 295 292 255 249 243 256 276 275
237 13 267 261 255 349 236 255 247 149 240 211 195 191 189 191 172 172 179 219 259 268 265 277 276 276 280 274 287 328 312 301 301 305 302 303 300 292 294 291 301 294 304 269 253 238 243 234 264
38 327 294 54 112 235 232 196 226 193 218 195 196 189 189 182 181 179 195 219 247 264 265 264 256 265 272 316 313 290 291 301 305 303 298 306 301 293 296 295 293 293 289 299 264 248 232 260 274
87 55 313 333 347 238 169 227 259 242 228 197 193 181 186 180 177 190 210 227 253 256 250 259 280 274 325 319 291 284 292 298 293 299 300 305 297 298 295 292 286 289 288 288 288 258 238 234 259
177 171 173 263 241 294 321 247 254 289 296 218 173 166 171 179 185 199 216 232 250 252 252 257 278 310 314 312 305 307 290 290 287 297 296 289 288 296 289 283 293 293 286 281 288 277 239 229 247
180 187 168 235 98 13 238 281 285 77 53 116 150 167 184 188 194 209 222 233 246 238 258 322 320 315 314 316 312 302 296 300 294 300 295 290 287 287 293 292 282 281 279 289 278 291 254 233 257
162 158 75 338 280 271 258 269 247 200 206 184 185 193 196 196 202 209 228 248 260 301 310 309 292 295 310 309 303 305 302 299 297 299 296 292 288 287 289 289 292 289 290 290 290 283 275 241 259
145 213 204 205 158 234 302 276 212 194 203 191 201 195 190 194 197 208 230 268 292 286 283 277 295 303 311 312 311 310 303 303 300 298 294 291 292 288 286 287 284 285 287 287 283 278 283 250 246
207 201 175 183 218 222 240 260 198 202 201 195 201 192 190 187 193 208 233 263 255 264 280 290 296 304 317 317 314 308 304 307 302 298 295 297 291 289 288 287 285 285 280 280 275 275 281 260 239